Lid_Strength_Index
5 5 4 4 4 4 4 5 5 4 4 4 4 4 4 4 4 6 7 5 4 1 1 5 4 4 4 6 5 7 12 14 12 12 10 7 9 6 5 7 7 5 6 4 4
5 5 4 4 4 4 4 4 5 4 4 4 4 4 4 3 7 8 4 2 2 1 6 7 7 5 6 7 6 9 12 12 9 9 9 7 8 8 8 8 9 7 5 4 4
4 4 5 5 5 4 4 5 5 5 5 5 4 4 4 4 9 9 3 3 2 3 5 6 6 6 8 7 8 8 11 9 8 8 7 7 8 7 8 10 8 8 6 5 5
4 4 4 4 5 5 4 4 5 5 5 5 5 5 4 7 16 8 3 3 2 5 5 6 7 10 10 10 7 10 8 8 7 6 7 8 7 8 8 7 5 5 5 5 6
4 4 4 4 4 4 4 4 4 5 5 5 5 5 7 13 13 8 4 5 7 7 8 9 10 10 12 9 8 10 8 7 7 7 7 7 8 8 8 6 5 5 5 6 6
4 4 4 4 4 4 4 4 4 5 5 5 5 5 10 17 8 9 8 8 8 9 9 8 9 8 10 9 10 8 8 8 7 7 7 8 8 8 8 6 6 5 6 7 6
4 4 4 4 4 4 4 4 4 4 5 5 5 7 10 13 9 8 8 9 9 8 10 9 7 9 9 11 8 8 11 9 8 8 9 7 10 10 7 6 7 6 6 6 6
5 4 4 4 4 4 4 4 4 5 5 5 5 9 13 7 10 8 9 9 9 7 8 7 7 8 9 9 10 11 10 14 10 8 7 8 14 9 7 7 8 7 6 6 5
5 5 5 5 5 5 5 5 5 5 5 5 9 11 14 7 10 9 9 10 9 8 7 7 7 10 10 13 14 14 16 14 12 8 9 10 13 9 7 8 8 7 7 6 8
5 5 5 5 5 5 5 5 5 5 7 7 8 15 12 14 10 9 8 8 10 9 10 10 11 13 12 14 20 18 17 14 14 11 10 11 12 9 8 8 8 8 7 7 8
5 5 5 5 5 6 8 11 14 15 13 15 14 14 13 11 8 9 8 9 9 11 15 13 16 17 16 14 13 14 15 14 12 10 11 12 12 11 9 8 9 8 8 8 8
5 4 5 5 6 6 9 13 13 13 17 12 12 12 11 9 12 10 8 12 13 16 14 16 18 14 13 12 12 12 14 14 12 10 11 12 12 11 11 10 8 8 8 8 10
4 4 4 5 6 9 11 11 8 10 17 14 13 13 11 10 12 12 10 12 14 16 15 17 14 11 12 12 12 12 14 14 14 12 11 12 14 13 11 10 10 7 7 8 10
4 4 5 6 9 11 12 9 8 11 23 18 15 12 11 10 14 10 9 12 13 15 14 14 10 10 11 12 11 15 11 12 13 14 18 12 19 14 12 12 11 9 8 9 9
4 4 5 7 11 12 10 9 10 15 32 18 15 10 11 13 13 12 8 10 13 13 13 13 11 11 12 11 10 12 10 12 12 14 15 15 17 15 13 14 12 11 9 10 10
4 5 6 8 11 11 9 10 14 25 32 20 15 15 15 14 13 11 11 9 8 10 9 10 7 9 10 8 9 9 11 12 13 14 19 16 17 17 14 13 12 11 9 9 10
5 6 8 8 12 10 11 15 25 30 21 23 18 15 16 16 14 12 13 12 13 16 16 11 11 8 8 11 10 11 14 19 20 20 20 15 17 15 11 10 10 10 10 9 10
6 7 8 9 11 10 14 21 31 30 26 17 16 16 17 15 14 13 12 14 11 11 14 17 17 11 9 11 13 13 13 18 23 22 20 15 19 15 10 8 9 9 9 10 11
6 11 12 11 10 11 18 29 28 25 18 20 18 21 19 15 15 13 14 14 10 10 14 15 15 10 9 8 9 13 16 12 16 16 19 17 15 12 10 10 9 9 11 12 12
11 12 13 11 11 15 22 24 25 17 15 18 23 19 22 18 17 17 15 12 11 9 9 12 16 11 10 9 9 12 10 16 16 21 22 19 18 17 13 12 10 10 11 12 12
12 16 12 11 13 19 26 26 21 15 14 16 23 20 16 16 15 20 18 12 9 10 9 10 13 13 11 13 14 13 14 14 14 16 20 21 19 12 13 11 10 9 10 12 12
14 21 11 12 21 21 25 25 16 15 14 15 17 17 16 13 16 16 19 14 9 9 13 10 12 17 14 11 10 11 13 14 18 18 17 17 18 13 13 13 9 11 11 12 12
16 16 12 13 25 25 19 20 16 16 15 15 15 14 12 13 19 16 17 10 10 13 11 10 14 18 19 13 11 13 12 12 13 14 17 19 18 12 13 12 10 12 12 12 13
15 20 18 16 18 20 22 25 22 15 15 14 14 12 13 14 12 18 17 11 9 12 8 9 12 15 20 16 13 14 13 12 14 17 16 16 16 13 13 12 11 13 13 13 13
16 18 17 23 20 21 21 22 24 21 15 14 14 13 13 17 14 18 15 11 10 9 11 13 15 14 14 13 12 13 13 13 14 14 17 15 14 12 13 12 11 12 12 12 12
16 17 17 20 18 19 18 20 19 19 17 18 16 13 12 17 14 16 13 12 13 12 12 11 18 16 17 13 13 14 13 13 13 13 13 13 14 10 12 11 12 11 12 12 13
14 14 15 17 19 20 21 19 17 16 16 14 14 13 13 12 11 11 10 11 11 13 15 12 15 16 22 15 15 20 15 13 13 12 12 15 12 9 10 12 12 12 12 12 12